Back to catalog

YAOGAN-35 02B

AliveMilitaryVLEO
NORAD 52908·PAYLOAD·🇨🇳 China

Launched Jun 23, 2022 from Xichang Satellite Launch Center

Loading…

Next Passes (next 24 hours)

TLE

FreshSource: Space-Track

Epoch: Sep 14, 2026, 23:19 UTC

1 52908U 22068B   26257.97202198  .00225696  00000-0  11581-2 0  9990
2 52908  34.9907 173.1464 0008581 276.5291  83.4464 15.79569923236802

Track YAOGAN-35 02B in real time with AllMySat

Download on the App Store